Tracking 19485 objects as of 22-Jan-2019
HD Live streaming from Space Station
objects crossing your sky now

WESTFORD NEEDLES

Track WESTFORD NEEDLES now!
10-day predictions
WESTFORD NEEDLES is classified as:


NORAD ID: 20504
Int'l Code: 1963-014FD
Perigee: 1,178.2 km
Apogee: 5,864.0 km
Inclination: 85.5 °
Period: 163.2 minutes
Semi major axis: 9892 km
RCS: 0.1216 m2 (medium)
Launch date: May 9, 1963
Source: United States (US)
Launch site: AIR FORCE WESTERN TEST RANGE (AFWTR)
aabbcc
Your satellite tracking list
Your tracking list is empty




NASA's NSSDC Master Catalog

Two Line Element Set (TLE):
1 20504U 63014FD  19020.53507129 +.00000728 +00000-0 +13089-1 0  9998
2 20504 085.4722 219.7092 2368487 033.8629 339.3071 08.82411185185491
Source of the keplerian elements: AFSPC